Tracking 28096 objects as of 28-Sep-2023
HD Live streaming from Space Station
objects crossing your sky now

SL-8 R/B

Track SL-8 R/B now!
10-day predictions


NORAD ID: 14760
Int'l Code: 1984-019B
Perigee: 757.2 km
Apogee: 798.8 km
Inclination: 74.0 °
Period: 100.3 minutes
Semi major axis: 7148 km
RCS: 4.2796 m2 (large)
Launch date: February 21, 1984
Source: Commonwealth of Independent States (former USSR) (CIS)
Launch site: PLESETSK MISSILE AND SPACE COMPLEX (PKMTR)

Note: This is a ROCKET BODY
Your satellite tracking list
Your tracking list is empty




NASA's NSSDC Master Catalog

Two Line Element Set (TLE):
1 14760U 84019B   23271.09372059  .00000522  00000-0  18676-3 0  9990
2 14760  74.0423 233.1029 0029046 250.3130 109.4889 14.36266412 72839
Source of the keplerian elements: AFSPC